Location: Ch�risy
(50.2331°N, 2.9131°E)
Time: 02:21:16
(UTC+00:00)

Cosmos 1726 Rocket - Pass Details

Date: 17 January 2021
Orbit: 604 x 628 km, 82.5° (Epoch: 28 February)

Event Time Altitude Azimuth Distance (km) Brightness Sun altitude
Rises 18:24:38 0° 346° (NNW) 2,879 7.1 -19.8°
Reaches altitude 10° 18:26:53 10° 341° (NNW) 1,973 6.3 -20.1°
Maximum altitude 18:31:08 53° 265° (W) 756 4.3 -20.8°
Drops below altitude 10° 18:35:22 10° 189° (S) 1,971 6.3 -21.5°
Sets 18:37:37 0° 185° (S) 2,875 7.1 -21.8°
